TimeCST,TemperatureF,Dew PointF,Humidity,Sea Level PressureIn,VisibilityMPH,Wind Direction,Wind SpeedMPH,Gust SpeedMPH,PrecipitationIn,Events,Conditions,WindDirDegrees,DateUTC
12:54 AM,28.0,23.0,81,30.29,10.0,NNW,5.8,-,N/A,,Clear,330,2013-01-17 06:54:00
1:54 AM,30.0,25.0,82,30.31,10.0,NNW,5.8,-,N/A,,Clear,340,2013-01-17 07:54:00
2:54 AM,33.1,27.0,78,30.33,10.0,North,10.4,-,N/A,,Clear,360,2013-01-17 08:54:00
3:54 AM,33.1,28.0,82,30.36,10.0,North,9.2,-,N/A,,Clear,10,2013-01-17 09:54:00
4:54 AM,30.9,27.0,85,30.38,10.0,North,4.6,-,N/A,,Clear,360,2013-01-17 10:54:00
6:54 AM,27.0,24.1,89,30.44,10.0,NW,6.9,-,N/A,,Clear,320,2013-01-17 12:54:00
7:54 AM,26.1,24.1,92,30.46,10.0,North,3.5,-,N/A,,Clear,360,2013-01-17 13:54:00
8:54 AM,32.0,28.9,88,30.49,10.0,NW,5.8,-,N/A,,Clear,320,2013-01-17 14:54:00
9:54 AM,39.0,30.9,73,30.53,10.0,NNW,8.1,-,N/A,,Clear,330,2013-01-17 15:54:00
10:54 AM,44.1,32.0,63,30.54,10.0,NNW,10.4,-,N/A,,Clear,340,2013-01-17 16:54:00
11:54 AM,48.9,32.0,52,30.52,10.0,North,9.2,-,N/A,,Clear,350,2013-01-17 17:54:00
12:54 PM,51.1,30.0,44,30.49,10.0,North,6.9,-,N/A,,Clear,350,2013-01-17 18:54:00
1:54 PM,53.1,30.0,41,30.46,10.0,North,4.6,-,N/A,,Clear,10,2013-01-17 19:54:00
2:54 PM,54.0,30.0,40,30.45,10.0,WNW,5.8,-,N/A,,Clear,290,2013-01-17 20:54:00
3:54 PM,54.0,30.0,40,30.45,10.0,NNW,5.8,-,N/A,,Clear,340,2013-01-17 21:54:00
4:54 PM,52.0,30.0,43,30.47,10.0,Calm,Calm,-,N/A,,Clear,0,2013-01-17 22:54:00
5:54 PM,46.0,28.0,50,30.48,10.0,Calm,Calm,-,N/A,,Clear,0,2013-01-17 23:54:00
6:54 PM,39.0,28.0,65,30.49,10.0,Calm,Calm,-,N/A,,Clear,0,2013-01-18 00:54:00
7:54 PM,35.1,26.1,70,30.50,10.0,SE,3.5,-,N/A,,Clear,140,2013-01-18 01:54:00
8:54 PM,35.1,27.0,72,30.49,10.0,SSE,4.6,-,N/A,,Clear,160,2013-01-18 02:54:00
9:54 PM,35.1,27.0,72,30.48,10.0,SSE,4.6,-,N/A,,Clear,160,2013-01-18 03:54:00
10:54 PM,32.0,26.1,79,30.46,10.0,South,5.8,-,N/A,,Clear,170,2013-01-18 04:54:00
11:54 PM,30.9,26.1,82,30.46,10.0,SSE,5.8,-,N/A,,Clear,160,2013-01-18 05:54:00